This demonstration page uses our WeatherBlox Daily Observations layout. Learn more.

38.89511, -77.03637

Hourly Observations for October 5, 2015

Temp ( °F °C ) Dew Point ( °F °C ) Humidity (%) Winds ( mph kmh ) Pressure ( in mb ) Visibility ( mi km ) Precip ( " mm )
12:52 am 00:52 Cloudy 55 12.8 48 8.9 77 77 NNE 9 15 30.18 1022 10 16.0934 0 0
1:52 am 01:52 Mostly Cloudy 55 12.8 48 8.9 77 77 NNE 9 15 30.17 1022 10 16.0934 0 0
2:39 am 02:39 Mostly Cloudy 54 12 48 9 82 82 NNE 8 13 30.18 1022 10 16.0934 0 0
2:52 am 02:52 Mostly Cloudy 55 12.8 48 8.9 77 77 NNE 9 15 30.17 1022 10 16.0934 0 0
3:41 am 03:41 Cloudy 55 13 46 8 72 72 N 13 20 30.18 1022 10 16.0934 0 0
3:52 am 03:52 Cloudy 55 12.8 47 8.3 74 74 NNE 12 19 30.17 1022 10 16.0934 0 0
4:52 am 04:52 Mostly Cloudy 54 12.2 47 8.3 77 77 N 10 17 30.16 1021 10 16.0934 0 0
5:39 am 05:39 Mostly Cloudy 54 12 46 8 77 77 N 14 22 30.18 1022 10 16.0934 0 0
5:52 am 05:52 Mostly Cloudy 54 12.2 46 7.8 75 75 N 14 22 30.18 1022 10 16.0934 0 0
6:52 am 06:52 Mostly Cloudy 53 11.7 46 7.8 77 77 NNE 14 22 30.17 1022 10 16.0934 0 0
7:52 am 07:52 Mostly Cloudy 53 11.7 46 7.8 77 77 NNE 13 20 30.18 1022 10 16.0934 0 0
8:52 am 08:52 Partly Cloudy 55 12.8 46 7.8 72 72 NNE 10 17 30.18 1022 10 16.0934 0 0
9:52 am 09:52 Partly Cloudy 57 13.9 48 8.9 72 72 NE 10 17 30.19 1022 10 16.0934 0 0
10:11 am 10:11 Mostly Cloudy 55 13 48 9 77 77 ENE 12 19 30.21 1023 10 16.0934 0 0
10:52 am 10:52 Mostly Cloudy 60 15.6 48 8.9 65 65 NE 5 7 30.19 1022 10 16.0934 0 0
11:29 am 11:29 Mostly Cloudy 61 16 48 9 63 63 NNE 12 19 30.18 1022 10 16.0934 0 0
11:52 am 11:52 Mostly Cloudy 61 16.1 49 9.4 65 65 NE 9 15 30.18 1022 10 16.0934 0 0
12:52 pm 12:52 Partly Cloudy 64 17.8 50 10 60 60 ENE 10 17 30.15 1021 10 16.0934 0 0
1:52 pm 13:52 Partly Cloudy 66 18.9 50 10 56 56 NE 12 19 30.13 1020 10 16.0934 0 0
2:52 pm 14:52 Partly Cloudy 68 20 48 8.9 49 49 NNE 8 13 30.11 1020 10 16.0934 0 0
3:52 pm 15:52 Partly Cloudy 67 19.4 49 9.4 53 53 ENE 7 11 30.1 1019 10 16.0934 0 0
4:52 pm 16:52 Partly Cloudy 67 19.4 49 9.4 53 53 NE 9 15 30.09 1019 10 16.0934 0 0
5:52 pm 17:52 Partly Cloudy 65 18.3 50 10 59 59 NE 8 13 30.09 1019 10 16.0934 0 0
6:52 pm 18:52 Partly Cloudy 62 16.7 51 10.6 67 67 E 7 11 30.09 1019 10 16.0934 0 0
7:52 pm 19:52 Partly Cloudy 61 16.1 51 10.6 70 70 ENE 6 9 30.11 1020 10 16.0934 0 0
8:52 pm 20:52 Partly Cloudy 60 15.6 51 10.6 72 72 Calm 30.12 1020 10 16.0934 0 0
9:52 pm 21:52 Clear 59 15 53 11.7 81 81 Calm 30.11 1020 10 16.0934 0 0
10:52 pm 22:52 Clear 58 14.4 51 10.6 78 78 N 3 6 30.11 1020 10 16.0934 0 0
11:52 pm 23:52 Clear 56 13.3 51 10.6 84 84 NNE 3 6 30.12 1020 10 16.0934 0 0

Powered by AerisWeather